Satellite: NOAA-11
Catalog number: 19531
Epoch time: 12270.75817345
Element set: 0073
Inclination: 098.7281 deg
RA of node: 353.7610 deg
Eccentricity: 0.0010651
Arg of perigee: 297.7286 deg
Mean anomaly: 062.2797 deg
Mean motion: 14.14981532 rev/day
Decay rate: -1.14e-06 rev/day^2
Epoch rev: 23887
Checksum: 313
Satellite: NOAA-12
Catalog number: 21263
Epoch time: 12270.96328852
Element set: 0565
Inclination: 098.7244 deg
RA of node: 292.1281 deg
Eccentricity: 0.0012995
Arg of perigee: 267.1247 deg
Mean anomaly: 092.8445 deg
Mean motion: 14.25519127 rev/day
Decay rate: 2.6e-07 rev/day^2
Epoch rev: 11105
Checksum: 298
Satellite: MET-3/5
Catalog number: 21655
Epoch time: 12270.49021303
Element set: 0001
Inclination: 082.5529 deg
RA of node: 080.6154 deg
Eccentricity: 0.0014330
Arg of perigee: 072.1173 deg
Mean anomaly: 288.1511 deg
Mean motion: 13.17041117 rev/day
Decay rate: 8.5e-07 rev/day^2
Epoch rev: 01498
Checksum: 247
Satellite: MET-2/21
Catalog number: 22782
Epoch time: 12270.68146769
Element set: 537
Inclination: 082.5488 deg
RA of node: 311.9896 deg
Eccentricity: 0.0021210
Arg of perigee: 225.7391 deg
Mean anomaly: 134.2042 deg
Mean motion: 13.83687901 rev/day
Decay rate: -5.1e-07 rev/day^2
Epoch rev: 96320
Checksum: 307
Satellite: OKEAN-4
Catalog number: 23317
Epoch time: 12270.85476100
Element set: 0033
Inclination: 082.5385 deg
RA of node: 296.1472 deg
Eccentricity: 0.0022420
Arg of perigee: 020.7775 deg
Mean anomaly: 339.4347 deg
Mean motion: 14.83960965 rev/day
Decay rate: 1.107e-05 rev/day^2
Epoch rev: 96988
Checksum: 311
Satellite: NOAA-14
Catalog number: 23455
Epoch time: 12270.88039328
Element set: 0049
Inclination: 098.8239 deg
RA of node: 353.0776 deg
Eccentricity: 0.0010211
Arg of perigee: 029.8943 deg
Mean anomaly: 330.2810 deg
Mean motion: 14.13871655 rev/day
Decay rate: 1.4e-07 rev/day^2
Epoch rev: 91516
Checksum: 296
Satellite: NOAA-15
Catalog number: 25338
Epoch time: 12270.58063395
Element set: 0419
Inclination: 098.7008 deg
RA of node: 256.5857 deg
Eccentricity: 0.0010629
Arg of perigee: 169.1917 deg
Mean anomaly: 190.9494 deg
Mean motion: 14.25121789 rev/day
Decay rate: 1.90e-06 rev/day^2
Epoch rev: 74729
Checksum: 339
Satellite: RESURS
Catalog number: 25394
Epoch time: 12270.98386295
Element set: 0197
Inclination: 098.3299 deg
RA of node: 253.9130 deg
Eccentricity: 0.0001262
Arg of perigee: 350.5144 deg
Mean anomaly: 009.6012 deg
Mean motion: 14.24297418 rev/day
Decay rate: 5.0e-07 rev/day^2
Epoch rev: 73889
Checksum: 308
Satellite: FENGYUN1
Catalog number: 25730
Epoch time: 12271.91835852
Element set: 704
Inclination: 098.8521 deg
RA of node: 229.1587 deg
Eccentricity: 0.0020664
Arg of perigee: 065.1012 deg
Mean anomaly: 295.2302 deg
Mean motion: 14.09754668 rev/day
Decay rate: 6.14e-06 rev/day^2
Epoch rev: 68908
Checksum: 307
Satellite: OKEAN-0
Catalog number: 25860
Epoch time: 12270.93241284
Element set: 0761
Inclination: 097.9494 deg
RA of node: 231.5686 deg
Eccentricity: 0.0000734
Arg of perigee: 035.4758 deg
Mean anomaly: 324.6500 deg
Mean motion: 14.74309213 rev/day
Decay rate: 5.75e-06 rev/day^2
Epoch rev: 70956
Checksum: 307
Satellite: NOAA-16
Catalog number: 26536
Epoch time: 12270.73810919
Element set: 0908
Inclination: 099.0844 deg
RA of node: 314.3784 deg
Eccentricity: 0.0010842
Arg of perigee: 154.9028 deg
Mean anomaly: 205.2656 deg
Mean motion: 14.12784969 rev/day
Decay rate: 2.55e-06 rev/day^2
Epoch rev: 61937
Checksum: 329
Satellite: NOAA-17
Catalog number: 27453
Epoch time: 12270.66263448
Element set: 0853
Inclination: 098.3313 deg
RA of node: 292.5472 deg
Eccentricity: 0.0011042
Arg of perigee: 215.9107 deg
Mean anomaly: 144.1330 deg
Mean motion: 14.24485371 rev/day
Decay rate: 1.84e-06 rev/day^2
Epoch rev: 53320
Checksum: 278
Satellite: NOAA-18
Catalog number: 28654
Epoch time: 12270.91545063
Element set: 0334
Inclination: 099.0580 deg
RA of node: 229.9118 deg
Eccentricity: 0.0013526
Arg of perigee: 227.6954 deg
Mean anomaly: 132.3056 deg
Mean motion: 14.11703727 rev/day
Decay rate: 5.2e-07 rev/day^2
Epoch rev: 37891
Checksum: 303
Satellite: NOAA-19
Catalog number: 33591
Epoch time: 12270.87538238
Element set: 0523
Inclination: 098.8696 deg
RA of node: 209.4360 deg
Eccentricity: 0.0014936
Arg of perigee: 093.0294 deg
Mean anomaly: 267.2561 deg
Mean motion: 14.11390740 rev/day
Decay rate: 2.36e-06 rev/day^2
Epoch rev: 18735
Checksum: 321
/EX
SB KEPS @ AMSAT $ORB12271.M
Orbital Elements 12271.MISC
HR AMSAT ORBITAL ELEMENTS FOR MANNED AND MISCELLANEOUS SATELLITES
FROM WA5QGD FORT WORTH,TX September 27, 2012
Send SUBSCRIBE KEPS/UNSUBSCRIBE KEPS to majordomo(a)amsat.org only
BID: ORB12271.M
TO ALL RADIO AMATEURS BT
Satellite: HUBBLE
Catalog number: 20580
Epoch time: 12271.20726304
Element set: 78
Inclination: 028.4692 deg
RA of node: 195.7700 deg
Eccentricity: 0.0003189
Arg of perigee: 071.1538 deg
Mean anomaly: 288.9500 deg
Mean motion: 15.02819243 rev/day
Decay rate: 2.390e-05 rev/day^2
Epoch rev: 3009
Checksum: 274
Satellite: ISS
Catalog number: 25544
Epoch time: 12271.74935508
Element set: 375
Inclination: 051.6482 deg
RA of node: 331.6519 deg
Eccentricity: 0.0017849
Arg of perigee: 107.2590 deg
Mean anomaly: 351.4520 deg
Mean motion: 15.50264162 rev/day
Decay rate: 2.0637e-04 rev/day^2
Epoch rev: 79395
Checksum: 306
Satellite: CO-58
Catalog number: 28895
Epoch time: 12271.62960078
Element set: 287
Inclination: 097.8982 deg
RA of node: 133.3246 deg
Eccentricity: 0.0017333
Arg of perigee: 185.8302 deg
Mean anomaly: 174.2703 deg
Mean motion: 14.60757213 rev/day
Decay rate: 8.75e-06 rev/day^2
Epoch rev: 36861
Checksum: 336
Satellite: FALCON
Catalog number: 30776
Epoch time: 12270.75802840
Element set: 445
Inclination: 035.4330 deg
RA of node: 016.1232 deg
Eccentricity: 0.0001463
Arg of perigee: 149.9442 deg
Mean anomaly: 210.1360 deg
Mean motion: 15.08276558 rev/day
Decay rate: 5.258e-05 rev/day^2
Epoch rev: 30559
Checksum: 272
Satellite: MAST
Catalog number: 31126
Epoch time: 12270.98766871
Element set: 0578
Inclination: 097.8761 deg
RA of node: 276.1473 deg
Eccentricity: 0.0093935
Arg of perigee: 152.7735 deg
Mean anomaly: 207.8442 deg
Mean motion: 14.54261296 rev/day
Decay rate: 5.74e-06 rev/day^2
Epoch rev: 28906
Checksum: 341
Satellite: CAPE1
Catalog number: 31130
Epoch time: 12270.55683236
Element set: 577
Inclination: 097.8861 deg
RA of node: 272.0750 deg
Eccentricity: 0.0101355
Arg of perigee: 167.9567 deg
Mean anomaly: 192.4096 deg
Mean motion: 14.53073442 rev/day
Decay rate: 6.00e-06 rev/day^2
Epoch rev: 28849
Checksum: 306
Satellite: COMPASS
Catalog number: 32787
Epoch time: 12271.74733992
Element set: 421
Inclination: 097.7890 deg
RA of node: 330.7754 deg
Eccentricity: 0.0016235
Arg of perigee: 085.0346 deg
Mean anomaly: 275.2701 deg
Mean motion: 14.84379070 rev/day
Decay rate: 3.145e-05 rev/day^2
Epoch rev: 23902
Checksum: 307
Satellite: AAUSAT2
Catalog number: 32788
Epoch time: 12270.68282206
Element set: 0412
Inclination: 097.7897 deg
RA of node: 330.1754 deg
Eccentricity: 0.0015713
Arg of perigee: 088.1604 deg
Mean anomaly: 272.1438 deg
Mean motion: 14.84724243 rev/day
Decay rate: 2.979e-05 rev/day^2
Epoch rev: 23889
Checksum: 328
Satellite: DO-64
Catalog number: 32789
Epoch time: 12270.75479471
Element set: 0429
Inclination: 097.8032 deg
RA of node: 332.6763 deg
Eccentricity: 0.0015531
Arg of perigee: 084.7377 deg
Mean anomaly: 275.5602 deg
Mean motion: 14.86473727 rev/day
Decay rate: 4.727e-05 rev/day^2
Epoch rev: 23896
Checksum: 353
Satellite: CO-66
Catalog number: 32791
Epoch time: 12270.76788497
Element set: 0410
Inclination: 097.7880 deg
RA of node: 329.4734 deg
Eccentricity: 0.0017012
Arg of perigee: 089.6418 deg
Mean anomaly: 270.6697 deg
Mean motion: 14.83719214 rev/day
Decay rate: 1.632e-05 rev/day^2
Epoch rev: 23880
Checksum: 344
Satellite: RS-30
Catalog number: 32953
Epoch time: 12271.83169720
Element set: 179
Inclination: 082.5005 deg
RA of node: 231.2990 deg
Eccentricity: 0.0020381
Arg of perigee: 083.0986 deg
Mean anomaly: 277.2416 deg
Mean motion: 12.43027797 rev/day
Decay rate: 1.0e-07 rev/day^2
Epoch rev: 19731
Checksum: 289
Satellite: PHARMSAT
Catalog number: 35002
Epoch time: 12226.86484473
Element set: 78
Inclination: 040.4341 deg
RA of node: 050.6671 deg
Eccentricity: 0.0012079
Arg of perigee: 300.9773 deg
Mean anomaly: 059.0492 deg
Mean motion: 16.39309245 rev/day
Decay rate: 7.728342e-02 rev/day^2
Epoch rev: 18355
Checksum: 302
Satellite: METEOR-M
Catalog number: 35865
Epoch time: 12271.74847681
Element set: 817
Inclination: 098.6426 deg
RA of node: 324.0905 deg
Eccentricity: 0.0003141
Arg of perigee: 104.4310 deg
Mean anomaly: 255.7213 deg
Mean motion: 14.21869747 rev/day
Decay rate: -1.1e-07 rev/day^2
Epoch rev: 15717
Checksum: 290
Satellite: RS-38
Catalog number: 35869
Epoch time: 12271.68382926
Element set: 802
Inclination: 098.6383 deg
RA of node: 324.0054 deg
Eccentricity: 0.0005264
Arg of perigee: 108.1791 deg
Mean anomaly: 251.9975 deg
Mean motion: 14.22088279 rev/day
Decay rate: 2.0e-07 rev/day^2
Epoch rev: 15718
Checksum: 324
Satellite: JUGNU
Catalog number: 37839
Epoch time: 12271.84697633
Element set: 234
Inclination: 019.9591 deg
RA of node: 096.3049 deg
Eccentricity: 0.0020463
Arg of perigee: 274.8662 deg
Mean anomaly: 084.9304 deg
Mean motion: 14.12084536 rev/day
Decay rate: 6.20e-06 rev/day^2
Epoch rev: 4977
Checksum: 319
Satellite: SRMSAT
Catalog number: 37841
Epoch time: 12271.68754735
Element set: 237
Inclination: 019.9697 deg
RA of node: 104.1580 deg
Eccentricity: 0.0012708
Arg of perigee: 234.7161 deg
Mean anomaly: 125.2117 deg
Mean motion: 14.10163947 rev/day
Decay rate: 2.64e-06 rev/day^2
Epoch rev: 4967
Checksum: 297
